Location: Unspecified
(0.0000°N, 0.0000°E)
Time: 07:50:18
(UTC+00:00)

METEOR M2 - Pass Details

Date: 06 December 2022
Orbit: 818 x 827 km, 98.4° (Epoch: 01 February)

Event Time Altitude Azimuth Distance (km) Brightness Sun altitude
Rises 19:02:35 0° 192° (SSW) 3,362 ? -16.5°
Reaches altitude 10° 19:05:22 10° 205° (SSW) 2,428 ? -17.1°
Maximum altitude 19:09:35 24° 257° (WSW) 1,657 ? -18.1°
Drops below altitude 10° 19:13:49 10° 310° (NW) 2,422 ? -19.0°
Sets 19:16:36 0° 323° (NW) 3,352 ? -19.7°
